GW3138 Weather Reports


time (UTC)temp
C
wind
direction
speed
KPH
gust
KPH
rain 1hr
cm
rain 24hr
cm
rain mn
cm
humidity
%
barometer
mb
20260505125014 16 0 0.0 1.6 0.00 0.00 0.00 71 1016.3
20260505124530 16 0 0.0 1.6 0.00 0.00 0.00 73 1016.1
20260505124013 15 139 0.0 1.6 0.00 0.00 0.00 73 1015.9
20260505123513 15 0 0.0 1.6 0.00 0.00 0.00 72 1015.7
20260505123032 15 0 0.0 1.6 0.00 0.00 0.00 73 1015.8
20260505122513 15 0 0.0 1.6 0.00 0.00 0.00 74 1015.7
20260505122010 14 0 0.0 1.6 0.00 0.00 0.00 75 1015.6
20260505121537 13 0 0.0 1.6 0.00 0.00 0.00 77 1015.6
20260505121011 13 0 0.0 1.6 0.00 0.00 0.00 77 1015.6
20260505120511 13 0 0.0 1.6 0.00 0.00 0.00 76 1015.5
20260505120055 13 0 0.0 1.6 0.00 0.00 0.00 75 1015.4
20260505115514 13 0 0.0 1.6 0.00 0.00 0.00 74 1015.3
20260505115010 13 139 0.0 1.6 0.00 0.00 0.00 74 1015.2
20260505114530 13 0 0.0 1.6 0.00 0.00 0.00 73 1015.2
20260505114014 13 139 0.0 1.6 0.00 0.00 0.00 74 1015.1
20260505113513 13 138 0.0 1.6 0.00 0.00 0.00 74 1015.2
20260505113029 13 138 0.0 1.6 0.00 0.00 0.00 74 1015.1
20260505112521 13 0 0.0 1.6 0.00 0.00 0.00 73 1015.0
20260505112013 13 0 0.0 1.6 0.00 0.00 0.00 73 1014.8
20260505111531 12 137 0.0 1.6 0.00 0.00 0.00 73 1014.7
20260505111012 12 0 0.0 1.6 0.00 0.00 0.00 73 1014.5
20260505110514 12 0 0.0 1.6 0.00 0.00 0.00 73 1014.5
20260505102019 12 0 0.0 1.6 0.00 0.00 0.00 71 1014.5
20260505101529 12 0 0.0 1.6 0.00 0.00 0.00 70 1014.5
20260505101013 13 0 0.0 1.6 0.00 0.00 0.00 70 1014.5
20260505100516 13 0 0.0 1.6 0.00 0.00 0.00 69 1014.4
20260505100032 13 0 0.0 1.6 0.00 0.00 0.00 69 1014.4
20260505095513 13 145 0.0 1.6 0.00 0.00 0.00 69 1014.4
20260505095013 13 0 0.0 1.6 0.00 0.00 0.00 68 1014.4
20260505094529 13 146 0.0 1.6 0.00 0.00 0.00 68 1014.3
20260505094014 13 145 0.0 1.6 0.00 0.00 0.00 68 1014.6
20260505093512 13 0 0.0 1.6 0.00 0.00 0.00 67 1014.6
20260505093037 13 0 0.0 1.6 0.00 0.00 0.00 67 1014.6
20260505092511 13 150 0.0 1.6 0.00 0.00 0.00 67 1014.7
20260505092013 13 149 0.0 1.6 0.00 0.00 0.00 66 1014.6
20260505091531 13 147 0.0 1.6 0.00 0.00 0.00 65 1014.5
20260505091012 13 158 0.0 3.2 0.00 0.00 0.00 65 1014.5
20260505090512 14 159 0.0 3.2 0.00 0.00 0.00 64 1014.4
20260505090041 14 150 0.0 3.2 0.00 0.00 0.00 64 1014.5
20260505085515 14 157 0.0 4.8 0.00 0.00 0.00 63 1014.6
20260505085012 14 155 1.6 6.4 0.00 0.00 0.00 63 1014.7
20260505084532 14 165 3.2 6.4 0.00 0.00 0.00 63 1014.6
20260505084013 14 162 1.6 4.8 0.00 0.00 0.00 63 1014.6
20260505083512 14 158 1.6 3.2 0.00 0.00 0.00 63 1014.6
20260505083030 14 160 0.0 4.8 0.00 0.00 0.00 63 1014.6
20260505082511 14 162 1.6 4.8 0.00 0.00 0.00 62 1014.6
20260505082011 14 160 0.0 4.8 0.00 0.00 0.00 63 1014.6
20260505081536 15 158 1.6 4.8 0.00 0.00 0.00 62 1014.9
20260505081011 15 158 1.6 4.8 0.00 0.00 0.00 62 1014.9
20260505080512 15 158 0.0 1.6 0.00 0.00 0.00 61 1014.9
20260505080037 15 160 0.0 1.6 0.00 0.00 0.00 61 1014.7
20260505075513 15 160 0.0 1.6 0.00 0.05 0.00 60 1014.6
20260505075012 15 158 0.0 3.2 0.00 0.05 0.00 60 1014.6
20260505074530 15 0 0.0 3.2 0.00 0.05 0.00 59 1014.6
20260505074012 15 155 0.0 1.6 0.00 0.05 0.00 59 1014.6
20260505073512 15 153 0.0 1.6 0.00 0.05 0.00 59 1014.7
20260505073046 16 157 0.0 1.6 0.00 0.05 0.00 58 1014.7
20260505072516 16 0 0.0 1.6 0.00 0.05 0.00 57 1014.6
20260505072010 16 156 0.0 1.6 0.00 0.05 0.00 57 1014.6
20260505071531 16 155 0.0 3.2 0.00 0.05 0.00 57 1014.6
20260505071014 16 152 0.0 3.2 0.00 0.05 0.00 56 1014.5
20260505070513 16 145 0.0 3.2 0.00 0.05 0.00 56 1014.6
20260505070030 16 153 1.6 3.2 0.00 0.05 0.00 56 1014.7
20260505065513 16 151 0.0 3.2 0.00 0.05 0.00 55 1014.9
20260505065012 16 144 1.6 3.2 0.00 0.05 0.00 55 1014.9
20260505064539 16 162 1.6 3.2 0.00 0.05 0.00 54 1014.7
20260505064013 16 160 0.0 3.2 0.00 0.05 0.00 54 1014.8
20260505063513 16 155 0.0 4.8 0.00 0.05 0.00 54 1014.7
20260505063031 17 158 1.6 4.8 0.00 0.05 0.00 54 1014.7
20260505062511 17 163 1.6 4.8 0.00 0.05 0.00 53 1014.8
20260505062020 17 161 1.6 4.8 0.00 0.05 0.00 54 1014.9
20260505061545 16 161 1.6 8.0 0.00 0.05 0.00 54 1015.0
20260505061011 16 158 1.6 8.0 0.00 0.05 0.00 54 1014.7
20260505060512 16 170 1.6 4.8 0.00 0.05 0.00 54 1014.8
20260505060033 16 154 1.6 6.4 0.00 0.05 0.00 54 1014.7
20260505055514 16 159 1.6 6.4 0.00 0.05 0.00 54 1014.9
20260505055015 16 158 1.6 3.2 0.00 0.05 0.00 54 1015.1
20260505054552 17 0 0.0 4.8 0.00 0.05 0.00 52 1015.1
20260505054015 17 160 1.6 4.8 0.00 0.05 0.00 51 1015.0
20260505053513 17 159 0.0 4.8 0.00 0.05 0.00 50 1015.0
20260505053034 17 158 0.0 3.2 0.00 0.05 0.00 50 1015.0
20260505052511 17 158 0.0 3.2 0.00 0.05 0.00 50 1015.1
20260505052014 17 155 0.0 3.2 0.00 0.05 0.00 50 1015.2
20260505051534 18 0 0.0 3.2 0.00 0.05 0.00 49 1015.2
20260505051014 18 0 0.0 3.2 0.00 0.05 0.00 49 1015.2
20260505050511 18 143 0.0 3.2 0.00 0.05 0.00 49 1015.1
20260505041532 17 158 3.2 8.0 0.00 0.05 0.00 49 1015.1
20260505041013 17 163 3.2 8.0 0.00 0.05 0.00 49 1015.0
20260505040510 17 172 3.2 6.4 0.00 0.05 0.00 49 1015.1
20260505040032 17 160 3.2 6.4 0.00 0.05 0.00 49 1014.9
20260505035510 17 161 1.6 4.8 0.00 0.05 0.05 49 1015.0
20260505035012 18 161 1.6 4.8 0.00 0.05 0.05 48 1015.1
20260505034532 18 160 1.6 6.4 0.00 0.05 0.05 48 1015.3
20260505034016 18 164 1.6 6.4 0.00 0.05 0.05 48 1015.2
20260505033513 18 130 3.2 6.4 0.00 0.05 0.05 49 1015.2
20260505033033 18 159 1.6 8.0 0.00 0.05 0.05 49 1015.1
20260505032513 18 165 3.2 11.3 0.00 0.05 0.05 48 1015.1
20260505032012 18 160 4.8 11.3 0.00 0.05 0.05 48 1015.2
20260505031542 18 160 3.2 8.0 0.00 0.05 0.05 48 1015.3
20260505031011 18 165 3.2 8.0 0.00 0.05 0.05 47 1015.2
20260505030511 18 157 3.2 11.3 0.00 0.05 0.05 47 1015.2
20260505030030 18 163 3.2 11.3 0.00 0.05 0.05 47 1015.1
20260505025513 18 162 3.2 11.3 0.00 0.05 0.05 47 1015.1
20260505025018 18 174 3.2 9.7 0.00 0.05 0.05 47 1015.0
20260505024538 18 168 3.2 9.7 0.00 0.05 0.05 48 1015.2
20260505024011 18 166 3.2 6.4 0.00 0.05 0.05 48 1015.2
20260505023511 18 157 1.6 4.8 0.00 0.05 0.05 48 1015.2
20260505023030 18 155 1.6 6.4 0.00 0.05 0.05 48 1015.1
20260505022512 18 169 1.6 8.0 0.00 0.05 0.05 47 1014.9
20260505022012 18 160 3.2 8.0 0.00 0.05 0.05 48 1015.0
20260505021533 18 171 1.6 6.4 0.00 0.05 0.05 48 1015.1
20260505021012 18 155 1.6 6.4 0.00 0.05 0.05 48 1015.1
20260505020512 18 162 1.6 4.8 0.00 0.05 0.05 49 1015.1
20260505020034 18 155 1.6 4.8 0.00 0.05 0.05 49 1015.0
20260505015518 18 163 3.2 4.8 0.00 0.05 0.05 49 1014.7
20260505015014 18 152 1.6 4.8 0.00 0.05 0.05 50 1014.8
20260505014536 18 160 1.6 3.2 0.00 0.05 0.05 50 1014.8
20260505014017 18 163 1.6 3.2 0.00 0.05 0.05 50 1014.8
20260505013514 18 155 1.6 3.2 0.00 0.05 0.05 50 1014.7
20260505013029 18 154 0.0 3.2 0.00 0.05 0.05 51 1014.7
20260505012512 18 156 0.0 3.2 0.00 0.05 0.05 51 1014.5
20260505012012 18 160 0.0 3.2 0.00 0.05 0.05 51 1014.5
20260505011535 18 153 0.0 1.6 0.00 0.05 0.05 50 1014.5
20260505011013 19 149 0.0 1.6 0.00 0.05 0.05 50 1014.6
20260505010513 19 155 0.0 1.6 0.00 0.05 0.05 50 1014.6
20260505010032 19 155 0.0 1.6 0.00 0.05 0.05 51 1014.6
20260505005514 19 154 0.0 1.6 0.00 0.05 0.05 50 1014.5
20260505005012 19 158 0.0 1.6 0.00 0.05 0.05 50 1014.3
20260505004544 19 153 0.0 1.6 0.00 0.05 0.05 50 1014.3
20260505004011 19 151 0.0 1.6 0.00 0.05 0.05 50 1014.4
20260505003511 19 0 0.0 1.6 0.00 0.05 0.05 50 1014.5
20260505003032 19 151 0.0 1.6 0.00 0.05 0.05 50 1014.4
20260505002518 19 152 0.0 1.6 0.00 0.05 0.05 50 1014.4
20260505002022 20 150 0.0 1.6 0.00 0.05 0.05 51 1014.4
20260505001532 20 150 0.0 1.6 0.00 0.05 0.05 51 1014.4
20260505001019 20 150 0.0 1.6 0.00 0.05 0.05 51 1014.4
20260505000513 20 147 0.0 1.6 0.00 0.05 0.05 51 1014.4
20260505000047 20 0 0.0 1.6 0.00 0.05 0.05 52 1014.4
20260504235514 20 0 0.0 1.6 0.00 0.05 0.05 51 1014.4
20260504235013 20 0 0.0 1.6 0.00 0.05 0.05 51 1014.5
20260504234531 20 0 0.0 1.6 0.00 0.05 0.05 50 1014.4
20260504234010 20 0 0.0 1.6 0.00 0.05 0.05 50 1014.4
20260504233513 21 0 0.0 0.0 0.00 0.05 0.05 50 1014.5
20260504233030 21 0 0.0 0.0 0.00 0.05 0.05 49 1014.6
20260504232514 21 0 0.0 0.0 0.00 0.05 0.05 49 1014.6
20260504232018 21 0 0.0 0.0 0.00 0.05 0.05 48 1014.6
20260504231531 21 0 0.0 1.6 0.00 0.05 0.05 48 1014.7
20260504231012 21 0 0.0 1.6 0.00 0.05 0.05 47 1014.6
20260504230513 21 0 0.0 1.6 0.00 0.05 0.05 46 1014.5
20260504230030 21 137 0.0 1.6 0.00 0.05 0.05 46 1014.6
20260504225514 21 0 0.0 1.6 0.00 0.05 0.05 46 1014.6
20260504225015 22 0 0.0 1.6 0.00 0.05 0.05 45 1014.6
20260504224529 22 0 0.0 1.6 0.00 0.05 0.05 45 1014.7
20260504224014 22 0 0.0 1.6 0.00 0.05 0.05 46 1014.5
20260504223511 22 147 0.0 1.6 0.00 0.05 0.05 48 1014.6
20260504223031 22 0 0.0 1.6 0.00 0.05 0.05 46 1014.7
20260504222511 22 148 0.0 1.6 0.00 0.05 0.05 45 1014.8
20260504222017 23 0 0.0 1.6 0.00 0.05 0.05 45 1014.7
20260504221535 23 154 0.0 1.6 0.00 0.05 0.05 45 1014.7
20260504221011 23 0 0.0 1.6 0.00 0.05 0.05 46 1014.6
20260504220512 24 127 0.0 1.6 0.00 0.05 0.05 44 1014.7
20260504220032 24 0 0.0 1.6 0.00 0.05 0.05 43 1014.7
20260504215511 25 0 0.0 1.6 0.00 0.05 0.05 43 1014.6
20260504215013 25 0 0.0 1.6 0.00 0.05 0.05 42 1014.7
20260504214534 25 143 0.0 1.6 0.00 0.05 0.05 42 1014.6
20260504214013 25 149 0.0 1.6 0.00 0.05 0.05 42 1014.5
20260504213514 25 0 0.0 1.6 0.00 0.05 0.05 43 1014.6
20260504213034 25 136 0.0 1.6 0.00 0.05 0.05 42 1014.6
20260504212515 25 0 0.0 1.6 0.00 0.05 0.05 42 1014.7
20260504212013 25 0 0.0 1.6 0.00 0.05 0.05 43 1014.7
20260504211530 26 144 0.0 1.6 0.00 0.05 0.05 42 1014.7
20260504211010 26 106 0.0 1.6 0.00 0.05 0.05 44 1014.6
20260504210515 26 0 0.0 1.6 0.00 0.05 0.05 44 1014.6
20260504210032 25 0 0.0 1.6 0.00 0.05 0.05 43 1014.9
20260504205514 25 0 0.0 1.6 0.00 0.05 0.05 42 1015.1
20260504205014 26 0 0.0 1.6 0.00 0.05 0.05 43 1015.1
20260504204534 25 0 0.0 1.6 0.00 0.05 0.05 45 1015.1
20260504204013 25 0 0.0 1.6 0.00 0.05 0.05 46 1014.9
20260504203518 25 0 0.0 1.6 0.00 0.05 0.05 45 1015.0
20260504203030 24 0 0.0 0.0 0.00 0.05 0.05 46 1015.1
20260504202517 25 0 0.0 1.6 0.00 0.05 0.05 43 1015.2
20260504202017 25 0 0.0 1.6 0.00 0.05 0.05 44 1015.3
20260504201530 25 153 0.0 1.6 0.00 0.05 0.05 44 1015.3
20260504201010 25 0 0.0 1.6 0.00 0.05 0.05 45 1015.1
20260504200511 25 0 0.0 1.6 0.00 0.05 0.05 45 1015.2
20260504200032 25 0 0.0 1.6 0.00 0.05 0.05 45 1015.3
20260504195513 25 0 0.0 1.6 0.00 0.05 0.05 43 1015.4
20260504195014 25 0 0.0 1.6 0.00 0.05 0.05 44 1015.5
20260504194530 25 150 0.0 1.6 0.00 0.05 0.05 44 1015.6
20260504194012 25 0 0.0 1.6 0.00 0.05 0.05 43 1015.7
20260504193514 25 123 0.0 1.6 0.00 0.05 0.05 44 1015.8
20260504193031 24 123 0.0 6.4 0.00 0.05 0.05 46 1015.9
20260504192511 24 0 1.6 6.4 0.00 0.05 0.05 48 1016.0
20260504192017 25 0 0.0 4.8 0.00 0.05 0.05 45 1016.1
20260504191531 24 0 0.0 4.8 0.00 0.05 0.05 46 1016.1
20260504191011 25 0 0.0 3.2 0.00 0.05 0.05 43 1016.2
20260504190515 25 127 0.0 3.2 0.00 0.05 0.05 45 1016.2
20260504190030 25 0 0.0 4.8 0.00 0.05 0.05 43 1016.2
20260504185512 25 105 0.0 4.8 0.00 0.05 0.05 46 1016.4
20260504185012 25 0 0.0 3.2 0.00 0.05 0.05 44 1016.4
20260504184532 25 0 0.0 3.2 0.00 0.05 0.05 47 1016.4
20260504184013 25 0 0.0 8.0 0.00 0.05 0.05 46 1016.6
20260504183516 24 0 0.0 8.0 0.00 0.05 0.05 51 1016.6
20260504183029 23 91 1.6 8.0 0.00 0.05 0.05 47 1016.7
20260504182513 24 68 1.6 3.2 0.00 0.05 0.05 46 1016.7
20260504182016 24 91 0.0 3.2 0.00 0.05 0.05 48 1016.7
20260504181532 23 0 0.0 4.8 0.00 0.05 0.05 48 1016.8
20260504181012 23 45 0.0 4.8 0.00 0.05 0.05 49 1016.8
20260504180517 23 33 0.0 6.4 0.00 0.05 0.05 51 1016.9
20260504180033 23 0 1.6 6.4 0.00 0.05 0.05 47 1016.9
20260504175517 22 124 0.0 8.0 0.00 0.05 0.05 50 1016.9
20260504175013 22 0 3.2 9.7 0.00 0.05 0.05 51 1017.0
20260504174530 22 4 1.6 9.7 0.00 0.05 0.05 48 1017.2
20260504174012 23 94 0.0 9.7 0.00 0.05 0.05 47 1017.2
20260504173513 22 0 1.6 9.7 0.00 0.05 0.05 51 1017.2
20260504173034 22 286 0.0 6.4 0.00 0.05 0.05 53 1017.3
20260504172509 22 28 1.6 6.4 0.00 0.05 0.05 54 1017.4
20260504172014 22 37 0.0 6.4 0.00 0.05 0.05 51 1017.5
20260504171532 23 52 0.0 6.4 0.00 0.05 0.05 50 1017.6
20260504171014 22 65 1.6 6.4 0.00 0.05 0.05 50 1017.7
20260504170512 23 116 0.0 3.2 0.00 0.05 0.05 55 1017.6
20260504151010 18 0 1.6 6.4 0.00 0.05 0.05 57 1018.5
20260504150511 18 0 0.0 6.4 0.00 0.05 0.05 58 1018.5
20260504141013 17 0 0.0 1.6 0.00 0.05 0.05 60 1018.9
20260504140513 17 121 0.0 1.6 0.00 0.05 0.05 64 1018.8
20260504130511 13 0 0.0 0.0 0.00 0.05 0.05 91 1018.6